This is the latest recevied weather packets stored in our database for station/object EA1IOS-11. If no packets are shown the sender has not sent any weather packets the latest 10 day(s).
| Time | Temp. | Humidity | Pressure | Rain* | Wind** | Luminosity | Snow |
|---|---|---|---|---|---|---|---|
| 1777991159 | 16.11° C | 74% | 1015.8 hPa | 0 mm | - | - | - |
| 1777989335 | 16.11° C | 69% | 1015.6 hPa | 0 mm | - | - | - |
| 1777988732 | 16.11° C | 71% | 1015.5 hPa | 0 mm | - | - | - |
| 1777987571 | 16.67° C | 68% | 1015.5 hPa | 0 mm | - | - | - |
| 1777986967 | 16.67° C | 67% | 1015.6 hPa | 0 mm | - | - | - |
| 1777986357 | 16.67° C | 64% | 1015.5 hPa | 0 mm | - | - | - |
| 1777985747 | 17.78° C | 61% | 1015.4 hPa | 0 mm | - | - | - |
| 1777982769 | 17.22° C | 66% | 1015.5 hPa | 0 mm | - | - | - |
| 1777979733 | 15.56° C | 68% | 1015.7 hPa | 0 mm | - | - | - |
| 1777977968 | 15° C | 74% | 1015.8 hPa | 0 mm | - | - | - |
| 1777976748 | 14.44° C | 76% | 1015.9 hPa | 0 mm | - | - | - |
| 1777968943 | 12.78° C | 80% | 1015.8 hPa | 0 mm | - | - | - |
| 1777968373 | 12.22° C | 81% | 1015.8 hPa | 0 mm | - | - | - |
| 1777967159 | 12.22° C | 81% | 1015.6 hPa | 0 mm | - | - | - |
| 1777966550 | 12.22° C | 81% | 1015.5 hPa | 0 mm | - | - | - |
| 1777965335 | 11.67° C | 82% | 1015.5 hPa | 0 mm | - | - | - |
| 1777962377 | 11.67° C | 83% | 1015.3 hPa | 0 mm | - | - | - |
| 1777961160 | 11.67° C | 84% | 1015.3 hPa | 0 mm | - | - | - |
| 1777958159 | 11.11° C | 85% | 1015 hPa | 0 mm | - | - | - |
| 1777956967 | 11.11° C | 85% | 1015.2 hPa | 0 mm | - | - | - |
| 1777953358 | 11.11° C | 87% | 1015.3 hPa | 0 mm | - | - | - |
| 1777952748 | 11.11° C | 87% | 1015.3 hPa | 0 mm | - | - | - |
| 1777939562 | 11.11° C | 88% | 1016.3 hPa | 0 mm | - | - | - |
| 1777937134 | 11.11° C | 89% | 1016.1 hPa | 0 mm | - | - | - |
| 1777932649 | 11.67° C | 89% | 1016.6 hPa | 0 mm | - | - | - |
* Rain latest hour (hover to see other rain measurements)
** Current wind speed in m/s (hover to see current wind gust speed)